Location: Hillern
(53.0557°N, 9.8577°E)
Time: 17:14:04
(UTC+00:00)

Cosmos 1707 - Pass Details

Date: 19 May 2025
Orbit: 422 x 430 km, 82.5° (Epoch: 16 June)

Event Time Altitude Azimuth Distance (km) Brightness Sun altitude
Exits shadow 22:53:35 45° 189° (S) 603 2.6 -16.8°
Maximum altitude 22:54:31 89° 113° (ESE) 442 2.2 -16.8°
Drops below altitude 10° 22:57:55 10° 11° (NNE) 1,554 6.3 -16.8°
Sets 22:59:59 0° 12° (NNE) 2,429 7.6 -16.9°
